Flag for U.S.A. Weather past 2 weeks in Worcester, Massachusetts, U.S.A.

Now
71 °F

Sunny.


Feels Like: 71 °F
Forecast: 69 / 86 °F
Wind: 9 mph from Southwest

Location: Worcester Regional Airport

Current Time: Jul 27, 2015 at 9:45:23 PM

Latest Report: Jul 27, 2015 at 8:54 PM


Visibility: 10 mi

Pressure: 30.02 "Hg

Humidity: 81%

Dew point: 65 °F

Location of WorcesterLocation

Historic Weather in Worcester — Graph

°F

Worcester temperature yesterday

Maximum temperature yesterday: 75 °F (at 2:54 PM)
Minimum temperature yesterday: 60 °F (at 1:54 AM)
Average temperature yesterday: 68 °F

Past Weeks' High & Low Weather Summary

 TemperatureHumidityPressure
High87 °F (Jul 19, 3:54 PM)97% (Jul 26, 5:54 AM)30.14 "Hg (Jul 26, 5:54 AM)
Low57 °F (Jul 16, 5:54 AM)35% (Jul 22, 2:54 PM)29.57 "Hg (Jul 21, 6:54 PM)
Average71 °F68%29.88 "Hg
* Reported Jul 12 8:54 PM — Jul 27 8:54 PM, Worcester, Weather by CustomWeather, © 2015

Note: Actual official high and low records may vary slightly from our data, if they occured in-between our weather recording intervals... More about our weather records

Advertising

Worcester weather history for previous 24 hours

 ConditionsComfort  
Time TempWeatherWind HumidityBarometerVisibility
8:54 PM
Mon, Jul 27
71 °FSunny.9 mph81%30.02 "Hg10 mi
7:54 PM73 °FSunny.8 mph76%30.02 "Hg10 mi
6:54 PM75 °FSunny.12 mph74%30.00 "Hg10 mi
4:54 PM77 °FPassing clouds.8 mph66%30.01 "Hg10 mi
3:54 PM78 °FScattered clouds.12 mph64%30.02 "Hg10 mi
2:54 PM80 °FScattered clouds.8 mph62%30.01 "Hg10 mi
1:54 PM79 °FPassing clouds.10 mph62%30.02 "Hg10 mi
1:03 PM77 °FBroken clouds.13 mph71%30.06 "Hg10 mi
12:54 PM76 °FMostly cloudy.9 mph74%30.05 "Hg10 mi
11:54 AM76 °FMostly cloudy.13 mph67%30.05 "Hg10 mi
10:54 AM76 °FPassing clouds.9 mph72%30.04 "Hg10 mi
9:54 AM72 °FSunny.8 mph78%30.04 "Hg10 mi
8:54 AM71 °FSunny.9 mph78%30.04 "Hg10 mi
7:54 AM67 °FSunny.6 mph90%30.04 "Hg10 mi
6:54 AM66 °FSunny.6 mph90%30.02 "Hg10 mi
5:54 AM65 °FPassing clouds.7 mph91%30.01 "Hg10 mi
4:54 AM65 °FClear.9 mph91%30.00 "Hg10 mi
3:54 AM65 °FPassing clouds.12 mph91%29.99 "Hg10 mi
2:54 AM65 °FClear.10 mph91%29.98 "Hg10 mi
1:54 AM66 °FClear.9 mph87%29.99 "Hg10 mi
12:54 AM66 °FClear.9 mph87%30.00 "Hg10 mi
11:54 PM
Sun, Jul 26
68 °FOvercast.10 mph82%30.01 "Hg10 mi
10:54 PM69 °FPassing clouds.13 mph76%30.01 "Hg10 mi
9:54 PM69 °FPassing clouds.10 mph79%30.02 "Hg10 mi
Weather by CustomWeather, © 2015

See weather overviewHow to use our weather pages